Location: Melbourne
(37.8170°S, 144.9670°E)
Time: 07:37:04
(UTC+11:00)

ERBS - Visible Passes

Search period start: 07 February 2016 00:00
Search period end: 17 February 2016 00:00
Orbit: 443 x 453 km, 57.0° (Epoch: 06 February)

Date Brightness Start Highest point End Pass type
(mag) Time Alt. Az. Time Alt. Az. Time Alt. Az.
07 Feb 2.5 21:22:38 10° SW 21:26:13 74° NW 21:28:58 16° NNE visible
09 Feb 5.1 21:45:04 10° W 21:47:03 14° WNW 21:49:03 10° NNW visible
10 Feb 4.6 21:06:29 10° WSW 21:09:18 22° WNW 21:12:06 10° N visible
